[[{"header":{"parameterUnit":"m.s-1","parameterCategory":1,"la1":30.2992,"la2":30.254,"lo1":-89.0895,"lo2":-89.0443,"dy":0.0025,"dx":0.0025,"nx":19,"ny":19,"refTime":"2026-05-24T21:00:00:Z","depth":0,"parameterNumber":2,"parameterNumberName":"U-component_of_WINDS"},"data":[0,0,0,-3.2814,-3.2812,-3.2666,-3.2665,-3.2509,-3.2508,0,0,0,0,0,0,0,0,0,0,0,-3.288,-3.288,-3.2814,-3.2811,-3.2666,-3.2665,-3.2509,-3.2508,0,0,0,0,0,0,0,0,0,0,0,-3.288,-3.288,-3.288,-3.2811,-3.2666,-3.2665,-3.2509,-3.2607,0,0,0,0,0,0,0,0,0,0,-3.2743,-3.2828,-3.288,-3.288,-3.281,-3.2666,-3.2665,-3.2612,-3.2601,-3.2589,0,-3.2589,0,-3.2546,-3.25,-3.2499,0,0,0,-3.2793,-3.2836,-3.2777,-3.288,-3.2809,-3.2666,-3.2726,-3.2605,-3.2594,-3.2576,-3.2586,-3.2579,-3.2544,-3.2499,-3.2498,-3.2498,-3.2499,0,0,-3.2801,-3.2865,-3.2785,-3.2771,-3.28,-3.2731,-3.2722,-3.2598,-3.2611,-3.2585,-3.2575,-3.2541,-3.2498,-3.2497,-3.2497,-3.2499,0,0,0,-3.2837,-3.2872,-3.2814,-3.2778,-3.275,-3.2727,-3.2717,-3.2617,-3.2593,-3.2573,-3.2539,-3.2497,-3.2496,-3.2496,-3.2498,-3.2602,0,0,0,-3.2841,-3.2892,-3.2819,-3.2856,-3.2753,-3.2682,-3.2739,-3.2602,-3.2586,-3.254,-3.2497,-3.2495,-3.2495,-3.2497,-3.2597,-3.2639,0,0,0,-3.2882,-3.2896,-3.2884,-3.286,-3.28,-3.2683,-3.2651,-3.2597,-3.2566,-3.2499,-3.2494,-3.2495,-3.2497,-3.2592,-3.2631,-3.2656,0,0,0,-3.2943,-3.2977,-3.2887,-3.2911,-3.2802,-3.2751,-3.2651,-3.2609,-3.2564,-3.2497,-3.2496,-3.2498,-3.2591,-3.2627,-3.2652,-3.2687,-3.2709,0,0,-3.3021,-3.2989,-3.2998,-3.2913,-3.2895,-3.2768,-3.2762,-3.2659,-3.2592,-3.2532,-3.2531,-3.2598,-3.2631,-3.2655,-3.2812,-3.283,0,0,0,-3.3045,-3.3052,-3.3033,-3.2996,-3.2921,-3.2858,-3.275,-3.2711,-3.2657,-3.2576,-3.2613,-3.2631,-3.2642,-3.2656,-3.2671,-3.2675,-3.2508,-3.2507,-3.2507,-3.3245,-3.3161,-3.317,-3.3069,-3.3033,-3.2922,-3.2884,-3.2812,-3.2736,-3.2746,-3.2727,-3.2832,-3.2851,-3.2862,-3.2868,-3.2741,-3.2741,-3.2741,-3.2742,-3.335,-3.3346,-3.3247,-3.322,-3.313,-3.3104,-3.2998,-3.2945,-3.2905,-3.284,-3.2846,-3.278,-3.2884,-3.2884,-3.2749,-3.2747,-3.2746,-3.2746,-3.2745,-3.347,-3.3453,-3.3409,-3.3345,-3.3304,-3.3199,-3.3167,-3.3085,-3.3008,-3.3014,-3.2983,-3.2981,-3.2966,-3.3006,-3.3006,-3.3006,-3.3007,-3.3007,-3.3007,-3.3611,-3.3557,-3.3542,-3.3466,-3.343,-3.3372,-3.3261,-3.3222,-3.3158,-3.31,-3.3099,-3.3021,-3.2912,-3.2884,-3.3012,-3.3011,-3.3011,-3.301,-3.301,-3.3744,-3.3701,-3.3678,-3.3643,-3.3545,-3.3509,-3.3407,-3.3335,-3.329,-3.3276,-3.3197,-3.3131,-3.309,-3.3077,-3.3054,-3.3217,-3.3217,-3.3217,-3.3217,-3.3843,-3.3816,-3.3773,-3.3722,-3.3662,-3.3567,-3.3539,-3.3452,-3.3355,-3.3321,-3.3286,-3.3249,-3.324,-3.3204,-3.3189,-3.3165,-3.3354,-3.3354,-3.3354,-3.3919,-3.3882,-3.3876,-3.3784,-3.3702,-3.3631,-3.3601,-3.3543,-3.3423,-3.3358,-3.3292,-3.3286,-3.3226,-3.3211,-3.3142,-3.312,-3.3076,0,0]},{"header":{"parameterUnit":"m.s-1","parameterCategory":1,"la1":30.2992,"la2":30.254,"lo1":-89.0895,"lo2":-89.0443,"dy":0.0025,"dx":0.0025,"nx":19,"ny":19,"refTime":"2026-05-24T21:00:00:Z","depth":0,"parameterNumber":3,"parameterNumberName":"V-component_of_WINDS"},"data":[0,0,0,3.1754,3.1756,3.1832,3.1832,3.1954,3.1955,0,0,0,0,0,0,0,0,0,0,0,3.1746,3.1747,3.1754,3.1756,3.1832,3.1832,3.1953,3.1955,0,0,0,0,0,0,0,0,0,0,0,3.1745,3.1747,3.1749,3.1757,3.1832,3.1832,3.1953,3.1887,0,0,0,0,0,0,0,0,0,0,3.181,3.1816,3.1747,3.1749,3.1757,3.1832,3.1832,3.1884,3.1892,3.193,0,3.1966,0,3.1963,3.1965,3.1965,0,0,0,3.1746,3.1809,3.1817,3.1749,3.1758,3.1832,3.1795,3.1888,3.1897,3.194,3.1968,3.1972,3.1965,3.1965,3.1966,3.2218,3.2219,0,0,3.1742,3.1768,3.1811,3.1823,3.1812,3.1793,3.1798,3.1893,3.1925,3.1968,3.1974,3.1967,3.1966,3.1968,3.2216,3.2218,0,0,0,3.1737,3.1765,3.177,3.1819,3.1831,3.1795,3.1801,3.1921,3.192,3.1975,3.1968,3.1967,3.1969,3.2214,3.2217,3.2324,0,0,0,3.1734,3.1762,3.1768,3.1785,3.1829,3.1877,3.1827,3.1914,3.1924,3.1967,3.1967,3.197,3.2212,3.2216,3.2317,3.2371,0,0,0,3.1736,3.1762,3.1778,3.1786,3.1819,3.1874,3.1879,3.1915,3.192,3.1965,3.1971,3.2211,3.2215,3.2311,3.2361,3.2445,0,0,0,3.1746,3.1872,3.178,3.1917,3.1819,3.1939,3.1878,3.1967,3.2018,3.1968,3.2213,3.2217,3.2309,3.2354,3.2439,3.2522,3.2559,0,0,3.1919,3.1894,3.1972,3.1892,3.2036,3.1926,3.2085,3.2108,3.209,3.2176,3.2182,3.2319,3.236,3.2444,3.2752,3.2782,0,0,0,3.2036,3.2093,3.2125,3.2175,3.2195,3.2217,3.2213,3.2221,3.2293,3.2139,3.2371,3.2394,3.2443,3.2481,3.2506,3.2547,3.2235,3.2235,3.2234,3.2318,3.2286,3.2415,3.2393,3.2441,3.2435,3.2473,3.2483,3.2437,3.2493,3.2519,3.271,3.2756,3.2775,3.2817,3.2559,3.2559,3.256,3.256,3.257,3.2646,3.2581,3.2682,3.2649,3.2734,3.2733,3.2697,3.2772,3.2688,3.2729,3.264,3.2808,3.2844,3.2568,3.2566,3.2565,3.2565,3.2564,3.2753,3.2784,3.2791,3.2859,3.2916,3.2888,3.2963,3.2929,3.2898,3.2938,3.2963,3.2961,3.2956,3.2951,3.2952,3.2953,3.2953,3.2954,3.2954,3.2941,3.2945,3.3012,3.3043,3.3071,3.3102,3.3097,3.3123,3.3143,3.3113,3.3113,3.3063,3.2829,3.2772,3.2965,3.2963,3.2961,3.296,3.296,3.3211,3.3144,3.3248,3.3275,3.3309,3.3368,3.3322,3.3378,3.3395,3.3433,3.3373,3.3205,3.3178,3.3158,3.311,3.3379,3.3379,3.3379,3.3379,3.3368,3.3349,3.3447,3.3493,3.3534,3.3503,3.3622,3.3619,3.3605,3.3614,3.3569,3.3503,3.3484,3.3468,3.3441,3.3397,3.3731,3.3732,3.3732,3.3533,3.3517,3.3625,3.3609,3.3632,3.3654,3.3765,3.3821,3.3791,3.3746,3.362,3.3605,3.3498,3.3464,3.3419,3.3378,3.3295,0,0]}]]